Year,Month,Day,Hour,Minute,Value (Times are PST for temperature in C)
2018,04,27,00,00,10.20
2018,04,27,00,01,10.20
2018,04,27,00,02,10.20
2018,04,27,00,03,10.10
2018,04,27,00,04,10.10
2018,04,27,00,05,10.10
2018,04,27,00,06,10.10
2018,04,27,00,07,10.10
2018,04,27,00,08,10.10
2018,04,27,00,09,10.20
2018,04,27,00,10,10.20
2018,04,27,00,11,10.20
2018,04,27,00,12,10.20
2018,04,27,00,13,10.20
2018,04,27,00,14,10.20
2018,04,27,00,15,10.20
2018,04,27,00,16,10.20
2018,04,27,00,17,10.20
2018,04,27,00,18,10.20
2018,04,27,00,19,10.20
2018,04,27,00,20,10.20
2018,04,27,00,21,10.20
2018,04,27,00,22,10.20
2018,04,27,00,23,10.20
2018,04,27,00,24,10.10
2018,04,27,00,25,10.10
2018,04,27,00,26,10.10
2018,04,27,00,27,10.10
2018,04,27,00,28,10.10
2018,04,27,00,29,10.00
2018,04,27,00,30,10.00
2018,04,27,00,31,9.90
2018,04,27,00,32,9.90
2018,04,27,00,33,9.90
2018,04,27,00,34,9.90
2018,04,27,00,35,9.90
2018,04,27,00,36,9.90
2018,04,27,00,37,9.90
2018,04,27,00,38,9.80
2018,04,27,00,39,9.80
2018,04,27,00,40,9.80
2018,04,27,00,41,9.80
2018,04,27,00,42,9.80
2018,04,27,00,43,9.80
2018,04,27,00,44,9.80
2018,04,27,00,45,9.70
2018,04,27,00,46,9.70
2018,04,27,00,47,9.70
2018,04,27,00,48,9.70
2018,04,27,00,49,9.70
2018,04,27,00,50,9.70
2018,04,27,00,51,9.70
2018,04,27,00,52,9.70
2018,04,27,00,53,9.70
2018,04,27,00,54,9.70
2018,04,27,00,55,9.70
2018,04,27,00,56,9.70
2018,04,27,00,57,9.70
2018,04,27,00,58,9.60
2018,04,27,00,59,9.60
2018,04,27,01,00,9.60
2018,04,27,01,01,9.60
2018,04,27,01,02,9.60
2018,04,27,01,03,9.60
2018,04,27,01,04,9.60
2018,04,27,01,05,9.60
2018,04,27,01,06,9.60
2018,04,27,01,07,9.60
2018,04,27,01,08,9.50
2018,04,27,01,09,9.50
2018,04,27,01,10,9.50
2018,04,27,01,11,9.40
2018,04,27,01,12,9.40
2018,04,27,01,13,9.40
2018,04,27,01,14,9.40
2018,04,27,01,15,9.40
2018,04,27,01,16,9.40
2018,04,27,01,17,9.40
2018,04,27,01,18,9.40
2018,04,27,01,19,9.40
2018,04,27,01,20,9.40
2018,04,27,01,21,9.40
2018,04,27,01,22,9.30
2018,04,27,01,23,9.30
2018,04,27,01,24,9.30
2018,04,27,01,25,9.30
2018,04,27,01,26,9.30
2018,04,27,01,27,9.30
2018,04,27,01,28,9.20
2018,04,27,01,29,9.20
2018,04,27,01,30,9.20
2018,04,27,01,31,9.20
2018,04,27,01,32,9.20
2018,04,27,01,33,9.20
2018,04,27,01,34,9.20
2018,04,27,01,35,9.20
2018,04,27,01,36,9.20
2018,04,27,01,37,9.20
2018,04,27,01,38,9.20
2018,04,27,01,39,9.20
2018,04,27,01,40,9.20
2018,04,27,01,41,9.20
2018,04,27,01,42,9.20
2018,04,27,01,43,9.20
2018,04,27,01,44,9.20
2018,04,27,01,45,9.20
2018,04,27,01,46,9.10
2018,04,27,01,47,9.10
2018,04,27,01,48,9.10
2018,04,27,01,49,9.10
2018,04,27,01,50,9.10
2018,04,27,01,51,9.10
2018,04,27,01,52,9.00
2018,04,27,01,53,9.00
2018,04,27,01,54,9.00
2018,04,27,01,55,8.90
2018,04,27,01,56,8.90
2018,04,27,01,57,8.90
2018,04,27,01,58,8.90
2018,04,27,01,59,8.90
2018,04,27,02,00,8.80
2018,04,27,02,01,8.80
2018,04,27,02,02,8.80
2018,04,27,02,03,8.80
2018,04,27,02,04,8.70
2018,04,27,02,05,8.70
2018,04,27,02,06,8.70
2018,04,27,02,07,8.70
2018,04,27,02,08,8.70
2018,04,27,02,09,8.60
2018,04,27,02,10,8.60
2018,04,27,02,11,8.60
2018,04,27,02,12,8.60
2018,04,27,02,13,8.60
2018,04,27,02,14,8.60
2018,04,27,02,15,8.60
2018,04,27,02,16,8.60
2018,04,27,02,17,8.60
2018,04,27,02,18,8.60
2018,04,27,02,19,8.60
2018,04,27,02,20,8.50
2018,04,27,02,21,8.50
2018,04,27,02,22,8.50
2018,04,27,02,23,8.50
2018,04,27,02,24,8.40
2018,04,27,02,25,8.40
2018,04,27,02,26,8.40
2018,04,27,02,27,8.40
2018,04,27,02,28,8.40
2018,04,27,02,29,8.30
2018,04,27,02,30,8.30
2018,04,27,02,31,8.30
2018,04,27,02,32,8.30
2018,04,27,02,33,8.30
2018,04,27,02,34,8.30
2018,04,27,02,35,8.30
2018,04,27,02,36,8.30
2018,04,27,02,37,8.30
2018,04,27,02,38,8.30
2018,04,27,02,39,8.30
2018,04,27,02,40,8.30
2018,04,27,02,41,8.30
2018,04,27,02,42,8.30
2018,04,27,02,43,8.30
2018,04,27,02,44,8.30
2018,04,27,02,45,8.30
2018,04,27,02,46,8.30
2018,04,27,02,47,8.30
2018,04,27,02,48,8.30
2018,04,27,02,49,8.40
2018,04,27,02,50,8.40
2018,04,27,02,51,8.40
2018,04,27,02,52,8.40
2018,04,27,02,53,8.40
2018,04,27,02,54,8.40
2018,04,27,02,55,8.40
2018,04,27,02,56,8.40
2018,04,27,02,57,8.40
2018,04,27,02,58,8.40
2018,04,27,02,59,8.40
2018,04,27,03,00,8.40
2018,04,27,03,01,8.30
2018,04,27,03,02,8.30
2018,04,27,03,03,8.30
2018,04,27,03,06,8.20
2018,04,27,03,07,8.20
2018,04,27,03,08,8.20
2018,04,27,03,09,8.20
2018,04,27,03,10,8.20
2018,04,27,03,11,8.10
2018,04,27,03,12,8.10
2018,04,27,03,13,8.10
2018,04,27,03,14,8.10
2018,04,27,03,15,8.10
2018,04,27,03,16,8.00
2018,04,27,03,17,8.00
2018,04,27,03,18,8.00
2018,04,27,03,19,8.00
2018,04,27,03,20,8.00
2018,04,27,03,21,8.00
2018,04,27,03,22,8.00
2018,04,27,03,23,8.00
2018,04,27,03,24,8.00
2018,04,27,03,25,8.00
2018,04,27,03,26,8.00
2018,04,27,03,27,8.00
2018,04,27,03,28,8.00
2018,04,27,03,29,8.00
2018,04,27,03,30,8.00
2018,04,27,03,31,8.10
2018,04,27,03,32,8.10
2018,04,27,03,33,8.10
2018,04,27,03,34,8.10
2018,04,27,03,35,8.00
2018,04,27,03,36,8.00
2018,04,27,03,37,8.00
2018,04,27,03,38,8.00
2018,04,27,03,39,8.00
2018,04,27,03,40,8.00
2018,04,27,03,41,8.00
2018,04,27,03,42,7.90
2018,04,27,03,43,7.90
2018,04,27,03,44,7.90
2018,04,27,03,45,7.90
2018,04,27,03,46,7.90
2018,04,27,03,47,7.80
2018,04,27,03,48,7.80
2018,04,27,03,49,7.80
2018,04,27,03,50,7.80
2018,04,27,03,51,7.80
2018,04,27,03,52,7.80
2018,04,27,03,53,7.80
2018,04,27,03,54,7.80
2018,04,27,03,55,7.80
2018,04,27,03,56,7.80
2018,04,27,03,57,7.80
2018,04,27,03,58,7.80
2018,04,27,03,59,7.80
2018,04,27,04,00,7.80
2018,04,27,04,01,7.80
2018,04,27,04,02,7.80
2018,04,27,04,03,7.80
2018,04,27,04,04,7.80
2018,04,27,04,05,7.80
2018,04,27,04,06,7.80
2018,04,27,04,07,7.80
2018,04,27,04,08,7.80
2018,04,27,04,09,7.80
2018,04,27,04,10,7.80
2018,04,27,04,11,7.70
2018,04,27,04,12,7.70
2018,04,27,04,13,7.70
2018,04,27,04,14,7.70
2018,04,27,04,15,7.60
2018,04,27,04,16,7.60
2018,04,27,04,17,7.60
2018,04,27,04,18,7.60
2018,04,27,04,19,7.60
2018,04,27,04,20,7.60
2018,04,27,04,21,7.60
2018,04,27,04,22,7.60
2018,04,27,04,23,7.60
2018,04,27,04,24,7.60
2018,04,27,04,25,7.50
2018,04,27,04,26,7.50
2018,04,27,04,27,7.50
2018,04,27,04,28,7.50
2018,04,27,04,29,7.40
2018,04,27,04,30,7.40
2018,04,27,04,31,7.40
2018,04,27,04,32,7.40
2018,04,27,04,33,7.40
2018,04,27,04,34,7.40
2018,04,27,04,35,7.30
2018,04,27,04,36,7.30
2018,04,27,04,37,7.30
2018,04,27,04,38,7.30
2018,04,27,04,39,7.20
2018,04,27,04,40,7.20
2018,04,27,04,41,7.20
2018,04,27,04,42,7.20
2018,04,27,04,43,7.20
2018,04,27,04,44,7.20
2018,04,27,04,45,7.20
2018,04,27,04,46,7.20
2018,04,27,04,47,7.20
2018,04,27,04,48,7.20
2018,04,27,04,49,7.20
2018,04,27,04,50,7.20
2018,04,27,04,51,7.20
2018,04,27,04,52,7.20
2018,04,27,04,53,7.20
2018,04,27,04,54,7.20
2018,04,27,04,55,7.20
2018,04,27,04,56,7.20
2018,04,27,04,57,7.20
2018,04,27,04,58,7.20
2018,04,27,04,59,7.20
2018,04,27,05,00,7.20
2018,04,27,05,01,7.20
2018,04,27,05,02,7.20
2018,04,27,05,03,7.20
2018,04,27,05,04,7.20
2018,04,27,05,05,7.20
2018,04,27,05,06,7.20
2018,04,27,05,07,7.20
2018,04,27,05,08,7.20
2018,04,27,05,09,7.20
2018,04,27,05,10,7.20
2018,04,27,05,11,7.20
2018,04,27,05,12,7.10
2018,04,27,05,13,7.10
2018,04,27,05,14,7.10
2018,04,27,05,15,7.10
2018,04,27,05,16,7.10
2018,04,27,05,17,7.00
2018,04,27,05,18,7.00
2018,04,27,05,19,7.00
2018,04,27,05,20,7.00
2018,04,27,05,21,7.00
2018,04,27,05,22,6.90
2018,04,27,05,23,6.90
2018,04,27,05,24,6.90
2018,04,27,05,25,6.90
2018,04,27,05,26,6.90
2018,04,27,05,27,6.90
2018,04,27,05,28,6.90
2018,04,27,05,29,7.00
2018,04,27,05,30,7.00
2018,04,27,05,31,7.00
2018,04,27,05,32,7.00
2018,04,27,05,33,6.90
2018,04,27,05,34,6.90
2018,04,27,05,35,6.90
2018,04,27,05,36,6.90
2018,04,27,05,37,6.90
2018,04,27,05,38,6.90
2018,04,27,05,39,6.90
2018,04,27,05,40,6.90
2018,04,27,05,41,6.90
2018,04,27,05,42,6.90
2018,04,27,05,43,6.90
2018,04,27,05,44,6.90
2018,04,27,05,45,6.90
2018,04,27,05,46,6.90
2018,04,27,05,47,6.80
2018,04,27,05,48,6.80
2018,04,27,05,49,6.80
2018,04,27,05,50,6.80
2018,04,27,05,51,6.80
2018,04,27,05,52,6.80
2018,04,27,05,53,6.80
2018,04,27,05,54,6.80
2018,04,27,05,55,6.80
2018,04,27,05,56,6.80
2018,04,27,05,57,6.80
2018,04,27,05,58,6.80
2018,04,27,05,59,6.80
2018,04,27,06,00,6.80
2018,04,27,06,01,6.80
2018,04,27,06,02,6.80
2018,04,27,06,03,6.80
2018,04,27,06,04,6.80
2018,04,27,06,05,6.80
2018,04,27,06,06,6.90
2018,04,27,06,07,6.90
2018,04,27,06,08,6.90
2018,04,27,06,09,6.90
2018,04,27,06,10,6.90
2018,04,27,06,11,6.90
2018,04,27,06,12,6.90
2018,04,27,06,13,6.90
2018,04,27,06,14,6.80
2018,04,27,06,15,6.80
2018,04,27,06,16,6.80
2018,04,27,06,17,6.80
2018,04,27,06,18,6.80
2018,04,27,06,19,6.80
2018,04,27,06,20,6.80
2018,04,27,06,21,6.80
2018,04,27,06,22,6.80
2018,04,27,06,23,6.80
2018,04,27,06,24,6.80
2018,04,27,06,25,6.80
2018,04,27,06,26,6.80
2018,04,27,06,27,6.90
2018,04,27,06,28,6.90
2018,04,27,06,29,6.90
2018,04,27,06,30,6.90
2018,04,27,06,31,6.90
2018,04,27,06,32,6.90
2018,04,27,06,33,6.90
2018,04,27,06,34,6.90
2018,04,27,06,35,6.90
2018,04,27,06,36,6.90
2018,04,27,06,37,6.90
2018,04,27,06,38,6.90
2018,04,27,06,39,6.90
2018,04,27,06,40,6.90
2018,04,27,06,41,6.90
2018,04,27,06,42,6.90
2018,04,27,06,43,6.90
2018,04,27,06,44,6.90
2018,04,27,06,45,6.90
2018,04,27,06,46,7.00
2018,04,27,06,47,7.00
2018,04,27,06,48,7.10
2018,04,27,06,49,7.10
2018,04,27,06,50,7.10
2018,04,27,06,51,7.10
2018,04,27,06,52,7.20
2018,04,27,06,53,7.20
2018,04,27,06,54,7.20
2018,04,27,06,55,7.20
2018,04,27,06,56,7.20
2018,04,27,06,57,7.30
2018,04,27,06,58,7.30
2018,04,27,06,59,7.30
2018,04,27,07,00,7.30
2018,04,27,07,01,7.40
2018,04,27,07,02,7.40
2018,04,27,07,03,7.40
2018,04,27,07,04,7.40
2018,04,27,07,05,7.50
2018,04,27,07,06,7.50
2018,04,27,07,07,7.50
2018,04,27,07,08,7.60
2018,04,27,07,09,7.60
2018,04,27,07,10,7.60
2018,04,27,07,11,7.60
2018,04,27,07,12,7.70
2018,04,27,07,13,7.70
2018,04,27,07,14,7.80
2018,04,27,07,15,7.80
2018,04,27,07,16,7.80
2018,04,27,07,17,7.90
2018,04,27,07,18,7.90
2018,04,27,07,19,8.00
2018,04,27,07,20,8.00
2018,04,27,07,21,8.10
2018,04,27,07,22,8.10
2018,04,27,07,23,8.10
2018,04,27,07,24,8.20
2018,04,27,07,25,8.20
2018,04,27,07,26,8.20
2018,04,27,07,27,8.30
2018,04,27,07,28,8.30
2018,04,27,07,29,8.30
2018,04,27,07,30,8.40
2018,04,27,07,31,8.40
2018,04,27,07,32,8.50
2018,04,27,07,33,8.50
2018,04,27,07,34,8.60
2018,04,27,07,35,8.70
2018,04,27,07,36,8.70
2018,04,27,07,37,8.80
2018,04,27,07,38,8.80
2018,04,27,07,39,8.90
2018,04,27,07,40,8.90
2018,04,27,07,41,9.00
2018,04,27,07,42,9.00
2018,04,27,07,43,9.10
2018,04,27,07,44,9.10
2018,04,27,07,45,9.20
2018,04,27,07,46,9.20
2018,04,27,07,47,9.30
2018,04,27,07,48,9.30
2018,04,27,07,49,9.40
2018,04,27,07,50,9.50
2018,04,27,07,51,9.70
2018,04,27,07,52,9.80
2018,04,27,07,53,9.80
2018,04,27,07,54,9.90
2018,04,27,07,55,10.00
2018,04,27,07,56,10.10
2018,04,27,07,57,10.20
2018,04,27,07,58,10.20
2018,04,27,07,59,10.30
2018,04,27,08,00,10.30
2018,04,27,08,01,10.40
2018,04,27,08,02,10.40
2018,04,27,08,03,10.50
2018,04,27,08,04,10.60
2018,04,27,08,05,10.60
2018,04,27,08,06,10.70
2018,04,27,08,07,10.80
2018,04,27,08,08,10.90
2018,04,27,08,09,11.00
2018,04,27,08,10,11.10
2018,04,27,08,11,11.20
2018,04,27,08,12,11.30
2018,04,27,08,13,11.50
2018,04,27,08,14,11.60
2018,04,27,08,15,11.70
2018,04,27,08,16,11.90
2018,04,27,08,17,12.00
2018,04,27,08,18,12.10
2018,04,27,08,19,12.20
2018,04,27,08,20,12.30
2018,04,27,08,21,12.40
2018,04,27,08,22,12.50
2018,04,27,08,23,12.60
2018,04,27,08,24,12.70
2018,04,27,08,25,12.80
2018,04,27,08,26,12.90
2018,04,27,08,27,13.00
2018,04,27,08,28,13.00
2018,04,27,08,29,13.10
2018,04,27,08,30,13.20
2018,04,27,08,31,13.30
2018,04,27,08,32,13.40
2018,04,27,08,33,13.40
2018,04,27,08,34,13.50
2018,04,27,08,35,13.60
2018,04,27,08,36,13.70
2018,04,27,08,37,13.80
2018,04,27,08,38,13.80
2018,04,27,08,39,13.90
2018,04,27,08,40,14.00
2018,04,27,08,41,14.20
2018,04,27,08,42,14.40
2018,04,27,08,43,14.60
2018,04,27,08,44,14.90
2018,04,27,08,45,15.10
2018,04,27,08,46,15.30
2018,04,27,08,47,15.50
2018,04,27,08,48,15.70
2018,04,27,08,49,15.90
2018,04,27,08,50,16.00
2018,04,27,08,51,16.10
2018,04,27,08,52,16.20
2018,04,27,08,53,16.30
2018,04,27,08,54,16.40
2018,04,27,08,55,16.50
2018,04,27,08,56,16.70
2018,04,27,08,57,16.80
2018,04,27,08,58,16.90
2018,04,27,08,59,17.00
2018,04,27,09,00,17.10
2018,04,27,09,01,17.20
2018,04,27,09,02,17.30
2018,04,27,09,03,17.40
2018,04,27,09,04,17.50
2018,04,27,09,05,17.50
2018,04,27,09,06,17.60
2018,04,27,09,07,17.70
2018,04,27,09,08,17.70
2018,04,27,09,09,17.70
2018,04,27,09,10,17.70
2018,04,27,09,11,17.70
2018,04,27,09,12,17.70
2018,04,27,09,13,17.70
2018,04,27,09,14,17.60
2018,04,27,09,15,17.50
2018,04,27,09,16,17.50
2018,04,27,09,17,17.50
2018,04,27,09,18,17.40
2018,04,27,09,19,17.40
2018,04,27,09,20,17.30
2018,04,27,09,21,17.30
2018,04,27,09,22,17.40
2018,04,27,09,23,17.40
2018,04,27,09,24,17.40
2018,04,27,09,25,17.50
2018,04,27,09,26,17.60
2018,04,27,09,27,17.70
2018,04,27,09,28,17.70
2018,04,27,09,29,17.80
2018,04,27,09,30,17.70
2018,04,27,09,31,17.70
2018,04,27,09,32,17.60
2018,04,27,09,33,17.60
2018,04,27,09,34,17.60
2018,04,27,09,35,17.60
2018,04,27,09,36,17.70
2018,04,27,09,37,17.80
2018,04,27,09,38,17.80
2018,04,27,09,39,17.90
2018,04,27,09,40,17.90
2018,04,27,09,41,18.10
2018,04,27,09,42,18.10
2018,04,27,09,43,18.20
2018,04,27,09,44,18.40
2018,04,27,09,45,18.50
2018,04,27,09,46,18.60
2018,04,27,09,47,18.60
2018,04,27,09,48,18.60
2018,04,27,09,49,18.60
2018,04,27,09,50,18.70
2018,04,27,09,51,18.80
2018,04,27,09,52,18.80
2018,04,27,09,53,18.80
2018,04,27,09,54,18.70
2018,04,27,09,55,18.70
2018,04,27,09,56,18.70
2018,04,27,09,57,18.70
2018,04,27,09,58,18.80
2018,04,27,09,59,18.90
2018,04,27,10,00,19.00
2018,04,27,10,01,19.00
2018,04,27,10,02,19.10
2018,04,27,10,03,19.10
2018,04,27,10,04,19.10
2018,04,27,10,05,19.10
2018,04,27,10,06,19.10
2018,04,27,10,07,19.10
2018,04,27,10,08,19.00
2018,04,27,10,09,19.00
2018,04,27,10,10,19.00
2018,04,27,10,11,19.00
2018,04,27,10,12,19.00
2018,04,27,10,13,19.00
2018,04,27,10,14,19.10
2018,04,27,10,15,19.10
2018,04,27,10,16,19.20
2018,04,27,10,17,19.30
2018,04,27,10,18,19.40
2018,04,27,10,19,19.50
2018,04,27,10,20,19.60
2018,04,27,10,21,19.70
2018,04,27,10,22,19.70
2018,04,27,10,23,19.80
2018,04,27,10,24,19.80
2018,04,27,10,25,19.90
2018,04,27,10,26,19.90
2018,04,27,10,27,19.80
2018,04,27,10,28,19.80
2018,04,27,10,29,19.80
2018,04,27,10,30,19.70
2018,04,27,10,31,19.70
2018,04,27,10,32,19.60
2018,04,27,10,33,19.60
2018,04,27,10,34,19.70
2018,04,27,10,35,19.70
2018,04,27,10,36,19.60
2018,04,27,10,37,19.60
2018,04,27,10,38,19.50
2018,04,27,10,39,19.50
2018,04,27,10,40,19.50
2018,04,27,10,41,19.50
2018,04,27,10,42,19.60
2018,04,27,10,43,19.60
2018,04,27,10,44,19.60
2018,04,27,10,45,19.60
2018,04,27,10,46,19.60
2018,04,27,10,47,19.70
2018,04,27,10,48,19.70
2018,04,27,10,49,19.80
2018,04,27,10,50,19.80
2018,04,27,10,51,19.90
2018,04,27,10,52,19.90
2018,04,27,10,53,20.00
2018,04,27,10,54,19.90
2018,04,27,10,55,19.80
2018,04,27,10,56,19.70
2018,04,27,10,57,19.60
2018,04,27,10,58,19.60
2018,04,27,10,59,19.60
2018,04,27,11,00,19.60
2018,04,27,11,01,19.60
2018,04,27,11,02,19.60
2018,04,27,11,03,19.60
2018,04,27,11,04,19.60
2018,04,27,11,05,19.50
2018,04,27,11,06,19.50
2018,04,27,11,07,19.50
2018,04,27,11,08,19.50
2018,04,27,11,09,19.50
2018,04,27,11,10,19.60
2018,04,27,11,11,19.60
2018,04,27,11,12,19.60
2018,04,27,11,13,19.70
2018,04,27,11,14,19.80
2018,04,27,11,15,19.90
2018,04,27,11,16,20.00
2018,04,27,11,17,20.10
2018,04,27,11,18,20.10
2018,04,27,11,19,20.10
2018,04,27,11,20,20.10
2018,04,27,11,21,20.00
2018,04,27,11,22,20.00
2018,04,27,11,23,20.00
2018,04,27,11,24,20.00
2018,04,27,11,25,20.10
2018,04,27,11,26,20.10
2018,04,27,11,27,20.20
2018,04,27,11,28,20.30
2018,04,27,11,29,20.30
2018,04,27,11,30,20.50
2018,04,27,11,31,20.60
2018,04,27,11,32,20.70
2018,04,27,11,33,20.80
2018,04,27,11,34,20.80
2018,04,27,11,35,20.80
2018,04,27,11,36,20.80
2018,04,27,11,37,20.70
2018,04,27,11,38,20.60
2018,04,27,11,39,20.60
2018,04,27,11,40,20.60
2018,04,27,11,41,20.60
2018,04,27,11,42,20.70
2018,04,27,11,43,20.70
2018,04,27,11,44,20.70
2018,04,27,11,45,20.60
2018,04,27,11,46,20.50
2018,04,27,11,47,20.40
2018,04,27,11,48,20.40
2018,04,27,11,49,20.40
2018,04,27,11,50,20.40
2018,04,27,11,51,20.50
2018,04,27,11,52,20.50
2018,04,27,11,53,20.50
2018,04,27,11,54,20.60
2018,04,27,11,55,20.60
2018,04,27,11,56,20.50
2018,04,27,11,57,20.50
2018,04,27,11,58,20.40
2018,04,27,11,59,20.40
2018,04,27,12,00,20.40
2018,04,27,12,01,20.40
2018,04,27,12,02,20.50
2018,04,27,12,03,20.50
2018,04,27,12,04,20.60
2018,04,27,12,05,20.60
2018,04,27,12,06,20.60
2018,04,27,12,07,20.70
2018,04,27,12,08,20.60
2018,04,27,12,09,20.60
2018,04,27,12,10,20.70
2018,04,27,12,11,20.80
2018,04,27,12,12,20.80
2018,04,27,12,13,20.70
2018,04,27,12,14,20.60
2018,04,27,12,15,20.50
2018,04,27,12,16,20.50
2018,04,27,12,17,20.60
2018,04,27,12,18,20.60
2018,04,27,12,19,20.60
2018,04,27,12,20,20.70
2018,04,27,12,21,20.70
2018,04,27,12,22,20.70
2018,04,27,12,23,20.70
2018,04,27,12,24,20.70
2018,04,27,12,25,20.70
2018,04,27,12,26,20.70
2018,04,27,12,27,20.80
2018,04,27,12,28,20.90
2018,04,27,12,29,21.00
2018,04,27,12,30,21.10
2018,04,27,12,31,21.10
2018,04,27,12,32,21.00
2018,04,27,12,33,21.00
2018,04,27,12,34,21.00
2018,04,27,12,35,20.90
2018,04,27,12,36,20.80
2018,04,27,12,37,20.80
2018,04,27,12,38,20.70
2018,04,27,12,39,20.70
2018,04,27,12,40,20.60
2018,04,27,12,41,20.50
2018,04,27,12,42,20.50
2018,04,27,12,43,20.60
2018,04,27,12,44,20.70
2018,04,27,12,45,20.80
2018,04,27,12,46,21.00
2018,04,27,12,47,21.10
2018,04,27,12,48,21.20
2018,04,27,12,49,21.30
2018,04,27,12,50,21.40
2018,04,27,12,51,21.40
2018,04,27,12,52,21.50
2018,04,27,12,53,21.50
2018,04,27,12,54,21.60
2018,04,27,12,55,21.70
2018,04,27,12,56,21.70
2018,04,27,12,57,21.80
2018,04,27,12,58,21.80
2018,04,27,12,59,21.80
2018,04,27,13,00,21.80
2018,04,27,13,01,21.80
2018,04,27,13,02,21.80
2018,04,27,13,03,21.70
2018,04,27,13,04,21.60
2018,04,27,13,05,21.40
2018,04,27,13,06,21.30
2018,04,27,13,07,21.20
2018,04,27,13,08,21.10
2018,04,27,13,09,21.00
2018,04,27,13,10,21.00
2018,04,27,13,11,20.90
2018,04,27,13,12,21.00
2018,04,27,13,13,21.00
2018,04,27,13,14,21.10
2018,04,27,13,15,21.10
2018,04,27,13,16,21.20
2018,04,27,13,17,21.20
2018,04,27,13,18,21.30
2018,04,27,13,19,21.40
2018,04,27,13,20,21.40
2018,04,27,13,21,21.40
2018,04,27,13,22,21.40
2018,04,27,13,23,21.30
2018,04,27,13,24,21.30
2018,04,27,13,25,21.20
2018,04,27,13,26,21.20
2018,04,27,13,27,21.20
2018,04,27,13,28,21.20
2018,04,27,13,29,21.20
2018,04,27,13,30,21.20
2018,04,27,13,31,21.20
2018,04,27,13,32,21.20
2018,04,27,13,33,21.30
2018,04,27,13,34,21.30
2018,04,27,13,35,21.30
2018,04,27,13,36,21.30
2018,04,27,13,37,21.30
2018,04,27,13,38,21.30
2018,04,27,13,39,21.20
2018,04,27,13,40,21.20
2018,04,27,13,41,21.10
2018,04,27,13,42,21.10
2018,04,27,13,43,21.00
2018,04,27,13,44,20.90
2018,04,27,13,45,20.90
2018,04,27,13,46,21.00
2018,04,27,13,47,21.00
2018,04,27,13,48,21.00
2018,04,27,13,49,20.80
2018,04,27,13,50,20.70
2018,04,27,13,51,20.70
2018,04,27,13,52,20.80
2018,04,27,13,53,20.90
2018,04,27,13,54,21.00
2018,04,27,13,55,21.00
2018,04,27,13,56,21.10
2018,04,27,13,57,21.10
2018,04,27,13,58,21.00
2018,04,27,13,59,21.00
2018,04,27,14,00,21.00
2018,04,27,14,01,21.00
2018,04,27,14,02,21.10
2018,04,27,14,03,21.20
2018,04,27,14,04,21.20
2018,04,27,14,05,21.10
2018,04,27,14,06,21.00
2018,04,27,14,07,21.10
2018,04,27,14,08,21.10
2018,04,27,14,09,21.20
2018,04,27,14,10,21.30
2018,04,27,14,11,21.30
2018,04,27,14,12,21.30
2018,04,27,14,13,21.40
2018,04,27,14,14,21.40
2018,04,27,14,15,21.40
2018,04,27,14,16,21.40
2018,04,27,14,17,21.30
2018,04,27,14,18,21.30
2018,04,27,14,19,21.20
2018,04,27,14,20,21.10
2018,04,27,14,21,21.10
2018,04,27,14,22,21.20
2018,04,27,14,23,21.10
2018,04,27,14,24,21.10
2018,04,27,14,25,21.10
2018,04,27,14,26,21.10
2018,04,27,14,27,21.00
2018,04,27,14,28,21.00
2018,04,27,14,29,21.00
2018,04,27,14,30,21.00
2018,04,27,14,31,21.00
2018,04,27,14,32,21.00
2018,04,27,14,33,21.10
2018,04,27,14,34,21.10
2018,04,27,14,35,21.10
2018,04,27,14,36,21.10
2018,04,27,14,37,21.00
2018,04,27,14,38,20.90
2018,04,27,14,39,20.90
2018,04,27,14,40,20.90
2018,04,27,14,41,20.90
2018,04,27,14,42,20.90
2018,04,27,14,43,20.90
2018,04,27,14,44,20.90
2018,04,27,14,45,21.00
2018,04,27,14,46,21.00
2018,04,27,14,47,20.90
2018,04,27,14,48,20.90
2018,04,27,14,49,20.90
2018,04,27,14,50,20.90
2018,04,27,14,51,21.00
2018,04,27,14,52,21.10
2018,04,27,14,53,21.30
2018,04,27,14,54,21.30
2018,04,27,14,55,21.40
2018,04,27,14,56,21.40
2018,04,27,14,57,21.40
2018,04,27,14,58,21.50
2018,04,27,14,59,21.60
2018,04,27,15,00,21.60
2018,04,27,15,01,21.60
2018,04,27,15,02,21.60
2018,04,27,15,03,21.60
2018,04,27,15,04,21.60
2018,04,27,15,05,21.70
2018,04,27,15,06,21.70
2018,04,27,15,07,21.70
2018,04,27,15,08,21.80
2018,04,27,15,09,21.80
2018,04,27,15,10,21.70
2018,04,27,15,11,21.70
2018,04,27,15,12,21.60
2018,04,27,15,13,21.60
2018,04,27,15,14,21.60
2018,04,27,15,15,21.50
2018,04,27,15,16,21.40
2018,04,27,15,17,21.40
2018,04,27,15,18,21.50
2018,04,27,15,19,21.60
2018,04,27,15,20,21.60
2018,04,27,15,21,21.60
2018,04,27,15,22,21.50
2018,04,27,15,23,21.40
2018,04,27,15,24,21.30
2018,04,27,15,25,21.20
2018,04,27,15,26,21.20
2018,04,27,15,27,21.10
2018,04,27,15,28,21.10
2018,04,27,15,29,21.00
2018,04,27,15,30,20.90
2018,04,27,15,31,20.80
2018,04,27,15,32,20.70
2018,04,27,15,33,20.60
2018,04,27,15,34,20.60
2018,04,27,15,35,20.50
2018,04,27,15,36,20.50
2018,04,27,15,37,20.40
2018,04,27,15,38,20.50
2018,04,27,15,39,20.40
2018,04,27,15,40,20.40
2018,04,27,15,41,20.50
2018,04,27,15,42,20.50
2018,04,27,15,43,20.50
2018,04,27,15,44,20.50
2018,04,27,15,45,20.50
2018,04,27,15,46,20.50
2018,04,27,15,47,20.40
2018,04,27,15,48,20.30
2018,04,27,15,49,20.20
2018,04,27,15,50,20.10
2018,04,27,15,51,20.10
2018,04,27,15,52,20.00
2018,04,27,15,53,20.00
2018,04,27,15,54,19.90
2018,04,27,15,55,19.90
2018,04,27,15,56,19.90
2018,04,27,15,57,19.90
2018,04,27,15,58,19.80
2018,04,27,15,59,19.90
2018,04,27,16,00,19.80
2018,04,27,16,01,19.80
2018,04,27,16,02,19.80
2018,04,27,16,03,19.80
2018,04,27,16,04,19.80
2018,04,27,16,05,19.80
2018,04,27,16,06,19.80
2018,04,27,16,07,19.80
2018,04,27,16,08,19.80
2018,04,27,16,09,19.80
2018,04,27,16,10,19.70
2018,04,27,16,11,19.70
2018,04,27,16,12,19.70
2018,04,27,16,13,19.60
2018,04,27,16,14,19.50
2018,04,27,16,15,19.40
2018,04,27,16,16,19.30
2018,04,27,16,17,19.20
2018,04,27,16,18,19.10
2018,04,27,16,19,19.00
2018,04,27,16,20,19.00
2018,04,27,16,21,18.90
2018,04,27,16,22,18.80
2018,04,27,16,23,18.80
2018,04,27,16,24,18.80
2018,04,27,16,25,18.70
2018,04,27,16,26,18.70
2018,04,27,16,27,18.70
2018,04,27,16,28,18.70
2018,04,27,16,29,18.70
2018,04,27,16,30,18.70
2018,04,27,16,31,18.60
2018,04,27,16,32,18.60
2018,04,27,16,33,18.60
2018,04,27,16,34,18.70
2018,04,27,16,35,18.70
2018,04,27,16,36,18.70
2018,04,27,16,37,18.60
2018,04,27,16,38,18.60
2018,04,27,16,39,18.50
2018,04,27,16,40,18.40
2018,04,27,16,41,18.40
2018,04,27,16,42,18.30
2018,04,27,16,43,18.20
2018,04,27,16,44,18.10
2018,04,27,16,45,18.00
2018,04,27,16,46,18.00
2018,04,27,16,47,17.90
2018,04,27,16,48,17.90
2018,04,27,16,49,17.90
2018,04,27,16,50,17.90
2018,04,27,16,51,17.90
2018,04,27,16,52,17.90
2018,04,27,16,53,17.80
2018,04,27,16,54,17.80
2018,04,27,16,55,17.80
2018,04,27,16,56,17.80
2018,04,27,16,57,17.80
2018,04,27,16,58,17.80
2018,04,27,16,59,17.70
2018,04,27,17,00,17.60
2018,04,27,17,01,17.60
2018,04,27,17,02,17.60
2018,04,27,17,03,17.50
2018,04,27,17,04,17.50
2018,04,27,17,05,17.50
2018,04,27,17,06,17.50
2018,04,27,17,07,17.50
2018,04,27,17,08,17.40
2018,04,27,17,09,17.40
2018,04,27,17,10,17.40
2018,04,27,17,11,17.40
2018,04,27,17,12,17.40
2018,04,27,17,13,17.40
2018,04,27,17,14,17.40
2018,04,27,17,15,17.40
2018,04,27,17,16,17.40
2018,04,27,17,17,17.50
2018,04,27,17,18,17.40
2018,04,27,17,19,17.40
2018,04,27,17,20,17.30
2018,04,27,17,21,17.30
2018,04,27,17,22,17.30
2018,04,27,17,23,17.30
2018,04,27,17,24,17.30
2018,04,27,17,25,17.30
2018,04,27,17,26,17.30
2018,04,27,17,27,17.20
2018,04,27,17,28,17.20
2018,04,27,17,29,17.30
2018,04,27,17,30,17.30
2018,04,27,17,31,17.30
2018,04,27,17,32,17.30
2018,04,27,17,33,17.30
2018,04,27,17,34,17.40
2018,04,27,17,35,17.30
2018,04,27,17,36,17.30
2018,04,27,17,37,17.20
2018,04,27,17,38,17.20
2018,04,27,17,39,17.20
2018,04,27,17,40,17.20